TimeHST,TemperatureF,Dew PointF,Humidity,Sea Level PressureIn,VisibilityMPH,Wind Direction,Wind SpeedMPH,Gust SpeedMPH,PrecipitationIn,Events,Conditions,WindDirDegrees,DateUTC
12:53 AM,77.0,63.0,62,30.02,10.0,Calm,Calm,-,N/A,,Clear,0,2013-06-10 10:53:00
1:53 AM,75.9,64.0,67,30.01,10.0,Calm,Calm,-,N/A,,Clear,0,2013-06-10 11:53:00
2:53 AM,75.0,64.9,71,29.99,10.0,SE,8.1,-,N/A,,Clear,140,2013-06-10 12:53:00
3:53 AM,75.0,64.9,71,29.99,10.0,ENE,3.5,-,N/A,,Clear,60,2013-06-10 13:53:00
4:53 AM,75.0,64.0,69,30.00,10.0,East,3.5,-,N/A,,Clear,90,2013-06-10 14:53:00
5:53 AM,73.9,64.0,71,30.01,10.0,Calm,Calm,-,N/A,,Clear,0,2013-06-10 15:53:00
6:53 AM,77.0,64.9,66,30.02,10.0,ENE,5.8,-,N/A,,Clear,60,2013-06-10 16:53:00
7:53 AM,80.1,64.9,60,30.02,10.0,Calm,Calm,-,N/A,,Clear,0,2013-06-10 17:53:00
8:53 AM,81.0,64.9,58,30.02,10.0,SSW,5.8,-,N/A,,Clear,200,2013-06-10 18:53:00
9:53 AM,81.0,68.0,65,30.02,10.0,SSW,10.4,-,N/A,,Mostly Cloudy,200,2013-06-10 19:53:00
10:53 AM,82.9,68.0,60,30.01,10.0,South,12.7,-,N/A,,Scattered Clouds,190,2013-06-10 20:53:00
11:53 AM,84.9,68.0,57,30.01,10.0,SSW,9.2,-,N/A,,Partly Cloudy,210,2013-06-10 21:53:00
12:53 PM,82.9,68.0,60,30.00,10.0,SSW,12.7,-,N/A,,Scattered Clouds,210,2013-06-10 22:53:00
1:53 PM,82.0,68.0,62,29.99,10.0,SSW,10.4,-,N/A,,Overcast,200,2013-06-10 23:53:00
2:53 PM,81.0,68.0,65,29.99,10.0,SSW,6.9,-,N/A,,Overcast,200,2013-06-11 00:53:00
3:53 PM,82.0,68.0,62,29.98,10.0,WSW,6.9,-,N/A,,Overcast,240,2013-06-11 01:53:00
4:53 PM,81.0,66.9,62,29.98,10.0,SW,6.9,-,N/A,,Overcast,230,2013-06-11 02:53:00
5:53 PM,80.1,66.9,64,29.98,10.0,SW,4.6,-,N/A,,Overcast,230,2013-06-11 03:53:00
6:53 PM,80.1,68.0,67,29.99,10.0,SW,4.6,-,N/A,,Overcast,230,2013-06-11 04:53:00
7:53 PM,79.0,66.0,64,30.00,10.0,Variable,3.5,-,N/A,,Overcast,0,2013-06-11 05:53:00
8:53 PM,80.1,61.0,52,30.00,10.0,North,9.2,-,N/A,,Mostly Cloudy,10,2013-06-11 06:53:00
9:53 PM,79.0,68.0,69,30.01,10.0,ESE,4.6,-,N/A,,Overcast,110,2013-06-11 07:53:00
10:53 PM,78.1,61.0,56,30.01,10.0,North,3.5,-,N/A,,Clear,360,2013-06-11 08:53:00
11:53 PM,78.1,66.0,66,29.99,10.0,SE,5.8,-,N/A,,Clear,140,2013-06-11 09:53:00